| time (UTC) | temp C | wind direction | speed KPH | gust KPH | rain 1hr cm | rain 24hr cm | rain mn cm | humidity % | barometer mb |
| 20260510031541 | 11 | 163 | 11.3 | 14.5 | 0.00 | 0.00 | 0.00 | 42 | 1018.6 |
| 20260510030521 | 11 | 167 | 8.0 | 12.9 | 0.00 | 0.00 | 0.00 | 41 | 1018.6 |
| 20260510025522 | 11 | 188 | 6.4 | 12.9 | 0.00 | 0.00 | 0.00 | 39 | 1018.4 |
| 20260510024522 | 12 | 174 | 4.8 | 8.0 | 0.00 | 0.00 | 0.00 | 36 | 1018.4 |
| 20260510023522 | 12 | 199 | 6.4 | 12.9 | 0.00 | 0.00 | 0.00 | 35 | 1018.1 |
| 20260510022522 | 11 | 264 | 6.4 | 12.9 | 0.00 | 0.00 | 0.00 | 33 | 1017.9 |
| 20260510021536 | 11 | 351 | 6.4 | 11.3 | 0.00 | 0.00 | 0.00 | 39 | 1017.6 |
| 20260510020522 | 12 | 75 | 8.0 | 9.7 | 0.00 | 0.00 | 0.00 | 37 | 1017.2 |
| 20260510015523 | 13 | 94 | 4.8 | 9.7 | 0.00 | 0.00 | 0.00 | 33 | 1017.0 |
| 20260510014524 | 13 | 106 | 9.7 | 14.5 | 0.00 | 0.00 | 0.00 | 30 | 1016.8 |
| 20260510013517 | 13 | 107 | 8.0 | 17.7 | 0.00 | 0.00 | 0.00 | 30 | 1016.7 |
| 20260510012517 | 13 | 103 | 9.7 | 22.5 | 0.00 | 0.00 | 0.00 | 30 | 1016.6 |
| 20260510011518 | 14 | 93 | 12.9 | 22.5 | 0.00 | 0.00 | 0.00 | 28 | 1016.4 |
| 20260510010518 | 15 | 90 | 11.3 | 22.5 | 0.00 | 0.00 | 0.00 | 29 | 1016.3 |
| 20260510005521 | 15 | 83 | 20.9 | 30.6 | 0.00 | 0.00 | 0.00 | 26 | 1016.2 |
| 20260510004518 | 16 | 62 | 16.1 | 22.5 | 0.00 | 0.00 | 0.00 | 23 | 1016.1 |
| 20260510003518 | 16 | 46 | 12.9 | 22.5 | 0.00 | 0.00 | 0.00 | 18 | 1016.0 |
| 20260510002518 | 16 | 70 | 20.9 | 32.2 | 0.00 | 0.00 | 0.00 | 23 | 1016.0 |
| 20260510001519 | 17 | 65 | 22.5 | 37.0 | 0.00 | 0.00 | 0.00 | 20 | 1015.7 |
| 20260510000519 | 17 | 6 | 12.9 | 22.5 | 0.00 | 0.00 | 0.00 | 18 | 1015.6 |
| 20260509235519 | 17 | 41 | 9.7 | 14.5 | 0.00 | 0.00 | 0.00 | 17 | 1015.6 |
| 20260509234519 | 18 | 20 | 12.9 | 17.7 | 0.00 | 0.00 | 0.00 | 16 | 1015.7 |
| 20260509233519 | 18 | 11 | 12.9 | 19.3 | 0.00 | 0.00 | 0.00 | 17 | 1015.7 |
| 20260509232519 | 18 | 356 | 17.7 | 27.4 | 0.00 | 0.00 | 0.00 | 16 | 1015.6 |
| 20260509231537 | 18 | 335 | 11.3 | 30.6 | 0.00 | 0.00 | 0.00 | 15 | 1015.6 |
| 20260509230517 | 18 | 334 | 14.5 | 22.5 | 0.00 | 0.00 | 0.00 | 15 | 1015.7 |
| 20260509225558 | 18 | 20 | 9.7 | 17.7 | 0.00 | 0.00 | 0.00 | 18 | 1015.7 |
| 20260509224521 | 17 | 16 | 9.7 | 14.5 | 0.00 | 0.00 | 0.00 | 17 | 1015.6 |
| 20260509223521 | 18 | 36 | 12.9 | 17.7 | 0.00 | 0.00 | 0.00 | 19 | 1015.7 |
| 20260509222518 | 18 | 340 | 11.3 | 19.3 | 0.00 | 0.00 | 0.00 | 18 | 1015.8 |
| 20260509221518 | 18 | 359 | 11.3 | 17.7 | 0.00 | 0.00 | 0.00 | 17 | 1015.8 |
| 20260509220518 | 18 | 351 | 16.1 | 27.4 | 0.00 | 0.00 | 0.00 | 15 | 1015.7 |
| 20260509215539 | 18 | 355 | 11.3 | 16.1 | 0.00 | 0.00 | 0.00 | 17 | 1015.8 |
| 20260509214539 | 18 | 356 | 11.3 | 20.9 | 0.00 | 0.00 | 0.00 | 17 | 1015.8 |
| 20260509213539 | 18 | 360 | 14.5 | 29.0 | 0.00 | 0.00 | 0.00 | 16 | 1015.9 |
| 20260509212519 | 18 | 336 | 16.1 | 30.6 | 0.00 | 0.00 | 0.00 | 15 | 1016.0 |
| 20260509211539 | 19 | 358 | 14.5 | 24.1 | 0.00 | 0.00 | 0.00 | 15 | 1016.0 |
| 20260509210519 | 20 | 354 | 11.3 | 19.3 | 0.00 | 0.00 | 0.00 | 16 | 1016.3 |
| 20260509205520 | 20 | 327 | 14.5 | 29.0 | 0.00 | 0.00 | 0.00 | 15 | 1016.3 |
| 20260509204517 | 19 | 354 | 20.9 | 35.4 | 0.00 | 0.00 | 0.00 | 14 | 1016.4 |
| 20260509203517 | 20 | 347 | 17.7 | 41.8 | 0.00 | 0.00 | 0.00 | 15 | 1016.5 |
| 20260509202520 | 19 | 345 | 20.9 | 30.6 | 0.00 | 0.00 | 0.00 | 14 | 1016.6 |
| 20260509201521 | 19 | 348 | 17.7 | 29.0 | 0.00 | 0.00 | 0.00 | 15 | 1016.6 |
| 20260509200518 | 19 | 352 | 20.9 | 38.6 | 0.00 | 0.00 | 0.00 | 14 | 1016.7 |
| 20260509195538 | 20 | 325 | 14.5 | 29.0 | 0.00 | 0.00 | 0.00 | 18 | 1016.8 |
| 20260509194558 | 19 | 358 | 16.1 | 35.4 | 0.00 | 0.00 | 0.00 | 18 | 1016.9 |
| 20260509193538 | 19 | 350 | 19.3 | 29.0 | 0.00 | 0.00 | 0.00 | 17 | 1017.0 |
| 20260509192519 | 18 | 345 | 16.1 | 25.7 | 0.00 | 0.00 | 0.00 | 17 | 1017.1 |
| 20260509191539 | 18 | 317 | 12.9 | 20.9 | 0.00 | 0.00 | 0.00 | 20 | 1017.2 |
| 20260509190518 | 18 | 360 | 8.0 | 24.1 | 0.00 | 0.00 | 0.00 | 20 | 1017.4 |
| 20260509185539 | 18 | 314 | 12.9 | 20.9 | 0.00 | 0.00 | 0.00 | 21 | 1017.4 |
| 20260509184519 | 17 | 335 | 12.9 | 19.3 | 0.00 | 0.00 | 0.00 | 21 | 1017.5 |
| 20260509183520 | 17 | 318 | 8.0 | 16.1 | 0.00 | 0.00 | 0.00 | 22 | 1017.6 |
| 20260509182516 | 16 | 347 | 9.7 | 17.7 | 0.00 | 0.00 | 0.00 | 24 | 1017.6 |
| 20260509181517 | 16 | 13 | 11.3 | 17.7 | 0.00 | 0.00 | 0.00 | 26 | 1017.8 |
| 20260509180520 | 16 | 354 | 8.0 | 14.5 | 0.00 | 0.00 | 0.00 | 26 | 1017.8 |
| 20260509175520 | 16 | 283 | 9.7 | 20.9 | 0.00 | 0.00 | 0.00 | 26 | 1017.9 |
| 20260509174521 | 16 | 24 | 11.3 | 19.3 | 0.00 | 0.00 | 0.00 | 26 | 1017.9 |
| 20260509173517 | 16 | 38 | 9.7 | 22.5 | 0.00 | 0.00 | 0.00 | 26 | 1017.8 |
| 20260509172521 | 16 | 330 | 8.0 | 14.5 | 0.00 | 0.00 | 0.00 | 25 | 1018.0 |
| 20260509171537 | 16 | 38 | 8.0 | 19.3 | 0.00 | 0.00 | 0.00 | 26 | 1018.1 |
| 20260509170538 | 16 | 30 | 11.3 | 22.5 | 0.00 | 0.00 | 0.00 | 27 | 1018.1 |
| 20260509165521 | 16 | 4 | 9.7 | 16.1 | 0.00 | 0.00 | 0.00 | 27 | 1018.3 |
| 20260509164518 | 15 | 39 | 11.3 | 19.3 | 0.00 | 0.00 | 0.00 | 26 | 1018.3 |
| 20260509163521 | 15 | 20 | 9.7 | 14.5 | 0.00 | 0.00 | 0.00 | 28 | 1018.2 |
| 20260509162518 | 15 | 43 | 8.0 | 17.7 | 0.00 | 0.00 | 0.00 | 28 | 1018.2 |
| 20260509161659 | 15 | 18 | 9.7 | 19.3 | 0.00 | 0.00 | 0.00 | 28 | 1018.1 |
| 20260509160522 | 15 | 43 | 6.4 | 12.9 | 0.00 | 0.00 | 0.00 | 30 | 1018.2 |
| 20260509155522 | 14 | 356 | 4.8 | 11.3 | 0.00 | 0.00 | 0.00 | 32 | 1018.2 |
| 20260509154516 | 13 | 22 | 4.8 | 9.7 | 0.00 | 0.00 | 0.00 | 36 | 1018.4 |
| 20260509153516 | 13 | 43 | 4.8 | 12.9 | 0.00 | 0.00 | 0.00 | 40 | 1018.5 |
| 20260509152523 | 12 | 34 | 8.0 | 14.5 | 0.00 | 0.00 | 0.00 | 42 | 1018.5 |
| 20260509151523 | 12 | 5 | 8.0 | 11.3 | 0.00 | 0.00 | 0.00 | 46 | 1018.5 |
| 20260509150523 | 11 | 21 | 6.4 | 12.9 | 0.00 | 0.00 | 0.00 | 50 | 1018.6 |
| 20260509145523 | 11 | 339 | 6.4 | 9.7 | 0.00 | 0.00 | 0.00 | 51 | 1018.6 |
| 20260509144538 | 11 | 354 | 9.7 | 12.9 | 0.00 | 0.00 | 0.00 | 49 | 1018.6 |
| 20260509143517 | 11 | 354 | 9.7 | 12.9 | 0.00 | 0.00 | 0.00 | 51 | 1018.6 |
| 20260509142518 | 11 | 354 | 8.0 | 11.3 | 0.00 | 0.00 | 0.00 | 45 | 1018.5 |
| 20260509141518 | 11 | 20 | 6.4 | 11.3 | 0.00 | 0.00 | 0.00 | 46 | 1018.4 |
| 20260509140521 | 10 | 325 | 1.6 | 4.8 | 0.00 | 0.00 | 0.00 | 52 | 1018.4 |
| 20260509135542 | 9 | 259 | 1.6 | 3.2 | 0.00 | 0.00 | 0.00 | 53 | 1018.3 |
| 20260509134522 | 8 | 164 | 3.2 | 4.8 | 0.00 | 0.00 | 0.00 | 53 | 1018.2 |
| 20260509133522 | 8 | 165 | 3.2 | 6.4 | 0.00 | 0.00 | 0.00 | 56 | 1018.3 |
| 20260509132522 | 7 | 154 | 3.2 | 4.8 | 0.00 | 0.00 | 0.00 | 59 | 1018.3 |
| 20260509131522 | 5 | 159 | 3.2 | 4.8 | 0.00 | 0.00 | 0.00 | 66 | 1018.2 |
| 20260509130522 | 5 | 300 | 1.6 | 4.8 | 0.00 | 0.00 | 0.00 | 65 | 1018.2 |
| 20260509125522 | 5 | 293 | 1.6 | 4.8 | 0.00 | 0.00 | 0.00 | 67 | 1018.1 |
| 20260509124523 | 3 | 155 | 3.2 | 6.4 | 0.00 | 0.00 | 0.00 | 66 | 1018.0 |
| 20260509123521 | 4 | 249 | 4.8 | 8.0 | 0.00 | 0.00 | 0.00 | 65 | 1017.8 |
| 20260509122521 | 3 | 82 | 6.4 | 12.9 | 0.00 | 0.00 | 0.00 | 66 | 1017.6 |
| 20260509121520 | 3 | 98 | 3.2 | 11.3 | 0.00 | 0.00 | 0.00 | 65 | 1017.5 |
| 20260509120523 | 3 | 229 | 3.2 | 4.8 | 0.00 | 0.00 | 0.00 | 71 | 1017.4 |
| 20260509115521 | 3 | 132 | 6.4 | 9.7 | 0.00 | 0.00 | 0.00 | 67 | 1017.3 |
| 20260509114524 | 2 | 197 | 4.8 | 8.0 | 0.00 | 0.00 | 0.00 | 73 | 1017.3 |
| 20260509113521 | 3 | 100 | 4.8 | 9.7 | 0.00 | 0.00 | 0.00 | 70 | 1017.3 |
| 20260509112521 | 2 | 75 | 3.2 | 11.3 | 0.00 | 0.00 | 0.00 | 75 | 1017.3 |
| 20260509111542 | 2 | 146 | 8.0 | 11.3 | 0.00 | 0.00 | 0.00 | 76 | 1017.2 |
| 20260509110521 | 2 | 143 | 6.4 | 8.0 | 0.00 | 0.00 | 0.00 | 74 | 1017.2 |
| 20260509105525 | 3 | 66 | 3.2 | 4.8 | 0.00 | 0.00 | 0.00 | 72 | 1017.1 |
| 20260509104542 | 1 | 80 | 6.4 | 9.7 | 0.00 | 0.00 | 0.00 | 78 | 1017.2 |
| 20260509103522 | 1 | 196 | 8.0 | 11.3 | 0.00 | 0.00 | 0.00 | 79 | 1017.2 |
| 20260509102522 | 1 | 150 | 8.0 | 12.9 | 0.00 | 0.00 | 0.00 | 78 | 1017.3 |
| 20260509101522 | 1 | 136 | 6.4 | 9.7 | 0.00 | 0.00 | 0.00 | 80 | 1017.2 |
| 20260509100522 | 1 | 197 | 8.0 | 11.3 | 0.00 | 0.00 | 0.00 | 82 | 1017.2 |
| 20260509095543 | 2 | 191 | 6.4 | 11.3 | 0.00 | 0.00 | 0.00 | 79 | 1017.2 |
| 20260509094523 | 2 | 181 | 4.8 | 9.7 | 0.00 | 0.00 | 0.00 | 79 | 1017.3 |
| 20260509093546 | 1 | 201 | 4.8 | 8.0 | 0.00 | 0.00 | 0.00 | 80 | 1017.4 |
| 20260509092526 | 2 | 186 | 3.2 | 4.8 | 0.00 | 0.00 | 0.00 | 81 | 1017.3 |
| 20260509091526 | 2 | 132 | 4.8 | 6.4 | 0.00 | 0.00 | 0.00 | 80 | 1017.3 |
| 20260509090527 | 2 | 116 | 3.2 | 3.2 | 0.00 | 0.00 | 0.00 | 80 | 1017.5 |
| 20260509085538 | 2 | 172 | 6.4 | 9.7 | 0.00 | 0.00 | 0.00 | 78 | 1017.5 |
| 20260509084518 | 2 | 145 | 9.7 | 14.5 | 0.00 | 0.00 | 0.00 | 79 | 1017.3 |
| 20260509083527 | 2 | 101 | 4.8 | 6.4 | 0.00 | 0.00 | 0.00 | 80 | 1017.4 |
| 20260509082527 | 1 | 233 | 4.8 | 8.0 | 0.00 | 0.00 | 0.00 | 82 | 1017.6 |
| 20260509081527 | 1 | 127 | 3.2 | 4.8 | 0.00 | 0.00 | 0.00 | 83 | 1017.7 |
| 20260509080527 | 1 | 155 | 4.8 | 6.4 | 0.00 | 0.00 | 0.00 | 82 | 1017.8 |
| 20260509075529 | 2 | 116 | 3.2 | 3.2 | 0.00 | 0.00 | 0.00 | 80 | 1017.8 |
| 20260509074528 | 2 | 99 | 3.2 | 4.8 | 0.00 | 0.00 | 0.00 | 80 | 1017.9 |
| 20260509073528 | 3 | 96 | 3.2 | 4.8 | 0.00 | 0.00 | 0.00 | 78 | 1018.0 |
| 20260509072520 | 3 | 143 | 6.4 | 9.7 | 0.00 | 0.00 | 0.00 | 74 | 1018.1 |
| 20260509071529 | 3 | 130 | 3.2 | 4.8 | 0.00 | 0.00 | 0.00 | 76 | 1018.1 |
| 20260509070520 | 3 | 142 | 6.4 | 9.7 | 0.00 | 0.00 | 0.00 | 75 | 1018.2 |
| 20260509065520 | 4 | 139 | 8.0 | 11.3 | 0.00 | 0.00 | 0.00 | 74 | 1018.3 |
| 20260509064520 | 5 | 132 | 4.8 | 9.7 | 0.00 | 0.00 | 0.00 | 71 | 1018.4 |
| 20260509063520 | 4 | 142 | 8.0 | 9.7 | 0.00 | 0.00 | 0.00 | 72 | 1018.4 |
| 20260509062529 | 4 | 139 | 3.2 | 8.0 | 0.00 | 0.00 | 0.00 | 75 | 1018.4 |
| 20260509061521 | 5 | 155 | 8.0 | 12.9 | 0.00 | 0.00 | 0.00 | 73 | 1018.5 |
| 20260509060521 | 5 | 143 | 6.4 | 12.9 | 0.00 | 0.00 | 0.00 | 72 | 1018.5 |
| 20260509055521 | 6 | 150 | 8.0 | 11.3 | 0.00 | 0.00 | 0.00 | 69 | 1018.5 |
| 20260509054602 | 6 | 159 | 8.0 | 11.3 | 0.00 | 0.00 | 0.00 | 67 | 1018.5 |
| 20260509053601 | 7 | 155 | 6.4 | 9.7 | 0.00 | 0.00 | 0.00 | 65 | 1018.4 |
| 20260509052521 | 8 | 129 | 6.4 | 9.7 | 0.00 | 0.00 | 0.00 | 61 | 1018.5 |
| 20260509051522 | 8 | 153 | 4.8 | 8.0 | 0.00 | 0.00 | 0.00 | 59 | 1018.4 |
| 20260509050551 | 9 | 184 | 1.6 | 4.8 | 0.00 | 0.00 | 0.00 | 55 | 1018.4 |
| 20260509045522 | 9 | 205 | 9.7 | 14.5 | 0.00 | 0.00 | 0.00 | 54 | 1018.3 |
| 20260509044522 | 9 | 170 | 9.7 | 16.1 | 0.00 | 0.00 | 0.00 | 57 | 1018.2 |
| 20260509043520 | 10 | 210 | 14.5 | 22.5 | 0.00 | 0.00 | 0.00 | 55 | 1018.3 |
| 20260509042519 | 10 | 202 | 16.1 | 27.4 | 0.00 | 0.00 | 0.00 | 52 | 1018.1 |
| 20260509041523 | 10 | 216 | 8.0 | 16.1 | 0.00 | 0.00 | 0.00 | 57 | 1018.2 |
| 20260509040600 | 10 | 199 | 12.9 | 24.1 | 0.00 | 0.00 | 0.00 | 57 | 1018.3 |
| 20260509035517 | 10 | 202 | 14.5 | 22.5 | 0.00 | 0.00 | 0.00 | 56 | 1018.2 |
| 20260509034520 | 9 | 199 | 11.3 | 19.3 | 0.00 | 0.00 | 0.00 | 60 | 1018.3 |
| 20260509033517 | 10 | 149 | 6.4 | 9.7 | 0.00 | 0.00 | 0.00 | 61 | 1018.1 |
| 20260509032532 | 10 | 224 | 6.4 | 8.0 | 0.00 | 0.00 | 0.00 | 59 | 1018.2 |